Terminal Aerodrome Forecast
Issued by NWS

Home | Current Version | Previous Version | Text Only | Print | Product List | Glossary On
Versions: 1 2 3 4 5 6 7 8 9 10 11 12 13 14 15
752
FTUS46 KMTR 271445 AAB
TAFSNS
TAF AMD
KSNS 271445Z 2715/2812 VRB04KT P6SM OVC012
      TEMPO 2715/2716 2SM HZ
     FM271800 VRB05KT P6SM FEW012
     FM272100 29014KT P6SM SKC
     FM280300 29010KT P6SM FEW012
     FM280700 VRB04KT P6SM BKN011=

USA.gov is the U.S. government's official web portal to all federal, state and local government web resources and services.